sat.trackr.live / text

‹ back to catalog

STARLINK-34543

NORAD 64926 · 2025-157Y

PAYLOAD ACTIVE UNKNOWN

§ Identity

Operator
Country
US
Launch date
2025-07-26
Launch site
AFETR
Launch vehicle
Mass (kg)
RCS (m²)

Purposes: comms

External: N2YO · Heavens-Above · Gunter

§ Orbital elements

Epoch: 2026-05-24T20:18:43.940160Z

Period
94.01 min
Inclination
53.1610°
Eccentricity
0.0000867
Mean motion
15.31708625 rev/d
Perigee alt
470.1 km
Apogee alt
471.3 km
Semi-major
6,848.9 km
B*
6.8441e-4
RAAN
351.9273°
Arg perigee
96.7378°
Mean anomaly
263.3722°
Rev number
4,773

§ Raw data

STARLINK-345431 64926U 25157Y   26144.84634190  .00020938  00000+0  68441-3 0  99962 64926  53.1610 351.9273 0000867  96.7378 263.3722 15.31708625 47730

JSON: /api/v1/satellites/64926 · /tle

For live sub-satellite position, see the globe view (requires WebGL).

§ Visibility from observer

Set your observer location to see the next 7 days of passes ≥ 10°. The values pass through the URL so the page stays shareable.

No JS? Fill the form by hand. The geolocation button needs JavaScript.